User: anonymous   Login
Location: Sperry Observatory
(40.6664°N, 74.3236°W)
Time: 16:29:02
(UTC-04:00)
Language:

UOSAT-12 - Orbit

View from above orbital plane
View from above orbital plane
View from above satellite
View from above satellite

Ground track
Ground track

The orbit data is extracted from the following two-line orbital elements,

1 25693U 99021A   16272.13834765  .00000011  00000-0  19888-4 0  9991
2 25693  64.5560 213.2785 0007789 322.8834  37.1731 14.80681451941365
Epoch (UTC): 28 September 2016 03:19:13
Eccentricity: 0.0007789
inclination: 64.5560°
perigee height: 622 km
apogee height: 632 km
right ascension of ascending node: 213.2785°
argument of perigee: 322.8834°
revolutions per day: 14.80681451
mean anomaly at epoch: 37.1731°
orbit number at epoch: 94136

The dashed part of the orbit path shows where the satellite is in the earth's shadow,  

DLR